NANOZOND 1 (RS49S)

Last updated on Thu Oct 30 2025 00:03:10 GMT+0000 (Coordinated Universal Time)

1 57190U 23091AA 25302.51412708 .00057068 00000+0 11505-2 0 9996 2 57190 97.5370 10.4219 0005761 149.4481 210.7105 15.46347555129858
UTC large
Height (km)
Speed (km/s)
/
Latitude / Longitude
Inclination (degrees)
Orbital Period (minutes)
Azimuth
Elevation
Range (km)
Doppler Factor

Next 0 passes for location: London (51.5072 / 0.1276)

Sorry there are no passes over London.